This is the latest recevied weather packets stored in our database for station/object EW6851. If no packets are shown the sender has not sent any weather packets the latest 10 day(s).
| Time | Temp. | Humidity | Pressure | Rain* | Wind** | Luminosity | Snow |
|---|---|---|---|---|---|---|---|
| 1778188021 | 20° C | 69% | 1009.9 hPa | 0 mm | - | 0 W/m² | - |
| 1778187418 | 20° C | 68% | 1009.8 hPa | 0 mm | - | 0 W/m² | - |
| 1778187119 | 20° C | 68% | 1009.7 hPa | 0 mm | - | 0 W/m² | - |
| 1778185019 | 20.56° C | 67% | 1009.5 hPa | 0 mm | - | 0 W/m² | - |
| 1778184721 | 20° C | 67% | 1009.5 hPa | 0 mm | - | 0 W/m² | - |
| 1778184118 | 20° C | 68% | 1009.6 hPa | 0 mm | - | 0 W/m² | - |
| 1778183521 | 20° C | 68% | 1009.8 hPa | 0 mm | - | 0 W/m² | - |
| 1778182918 | 20.56° C | 67% | 1009.7 hPa | 0 mm | - | 0 W/m² | - |
| 1778182318 | 20.56° C | 67% | 1009.3 hPa | 0 mm | - | 0 W/m² | - |
| 1778181718 | 20° C | 67% | 1009.1 hPa | 0 mm | - | 0 W/m² | - |
| 1778180824 | 20° C | 68% | 1009 hPa | 0 mm | - | 0 W/m² | - |
| 1778180521 | 20° C | 68% | 1009.1 hPa | 0 mm | - | 0 W/m² | - |
| 1778179618 | 20° C | 68% | 1009.1 hPa | 0 mm | - | 0 W/m² | - |
| 1778176924 | 20.56° C | 66% | 1008.6 hPa | 0 mm | - | 0 W/m² | - |
| 1778175118 | 21.11° C | 66% | 1008.8 hPa | 0 mm | - | 28 W/m² | - |
| 1778173918 | 21.11° C | 64% | 1009.1 hPa | 0 mm | - | 32 W/m² | - |
| 1778172421 | 21.67° C | 63% | 1008.8 hPa | 0 mm | - | 76 W/m² | - |
| 1778171818 | 21.67° C | 62% | 1008.8 hPa | 0 mm | - | 211 W/m² | - |
| 1778171219 | 21.67° C | 61% | 1008.6 hPa | 0 mm | - | 163 W/m² | - |
| 1778170918 | 22.22° C | 59% | 1008.5 hPa | 0 mm | - | 151 W/m² | - |
| 1778170027 | 22.22° C | 57% | 1008.4 hPa | 0 mm | - | 220 W/m² | - |
| 1778169721 | 22.22° C | 56% | 1008.3 hPa | 0 mm | - | 257 W/m² | - |
| 1778168821 | 22.22° C | 55% | 1008.3 hPa | 0 mm | - | 237 W/m² | - |
| 1778167618 | 22.78° C | 54% | 1008.3 hPa | 0 mm | - | 445 W/m² | - |
| 1778167318 | 23.33° C | 53% | 1008.4 hPa | 0 mm | - | 190 W/m² | - |
* Rain latest hour (hover to see other rain measurements)
** Current wind speed in m/s (hover to see current wind gust speed)